Regional Weather Roundup
Issued by NWS

Home | Current Version | Previous Version | Text Only | Print | Product List | Glossary Off
Versions: 1 2 3 4 5 6 7 8 9 10 11 12 13 14 15 16 17 18 19 20 21 22 23 24 25 26 27 28 29 30 31 32 33 34 35 36 37 38 39 40 41 42 43 44 45 46 47 48 49 50

000
ASUS43 KLMK 220710
RWRKY
KENTUCKY REGIONAL WEATHER ROUNDUP
NATIONAL WEATHER SERVICE LOUISVILLE KY
300 AM EDT SUN OCT 22 2017

NOTE "FAIR" INDICATES FEW OR NO CLOUDS BELOW 12,000 FEET
WITH NO SIGNIFICANT WEATHER AND/OR OBSTRUCTIONS TO VISIBILITY.

KYZ001>023-026-027-061>063-070>075-220800-
WESTERN AND SOUTH CENTRAL KENTUCKY

CITY           SKY/WX    TMP DP  RH WIND       PRES   REMARKS
PADUCAH        CLOUDY    70  59  68 S15G23    30.03F
HENDERSON      MOCLDY    64  57  78 SE6       30.09F
OWENSBORO      PTCLDY    63  53  70 SE10      30.11F
HOPKINSVILLE   PTCLDY    64  56  75 SE7       30.12S
BOWLING GREEN  CLOUDY    54  52  93 CALM      30.16R
GLASGOW        CLEAR     62  49  62 S6        30.17S
$$

KYZ024-025-028>034-038-045-046-053-220800-
NORTH CENTRAL KENTUCKY

CITY           SKY/WX    TMP DP  RH WIND       PRES   REMARKS
LOUISVILLE/SDF MOCLDY    60  50  69 SE5       30.17R
LOUISVILLE/LOU MOCLDY    58  51  78 CALM      30.18R
FORT KNOX      CLOUDY    61  50  68 S10       30.16R
$$

KYZ035>037-039>044-047>052-055>060-089>105-220800-
NORTHEAST KENTUCKY

CITY           SKY/WX    TMP DP  RH WIND       PRES   REMARKS
LEXINGTON      MOCLDY    59  48  67 S7        30.22R
COVINGTON      PTCLDY    59  49  69 S5        30.19R
FRANKFORT      PTCLDY    52  47  83 CALM      30.19S
$$

KYZ054-064>069-076>088-106>120-220800-
SOUTHEAST KENTUCKY

CITY           SKY/WX    TMP DP  RH WIND       PRES   REMARKS
JACKSON        CLOUDY    58  49  72 CALM      30.24R
LONDON         PTCLDY    49  47  93 CALM      30.23F
SOMERSET       MOCLDY    54  50  87 CALM      30.25R
MIDDLESBORO    CLOUDY    49  49 100 CALM      30.27S
MONTICELLO     MOSUNNY   55  48  77 VRB6      30.24S
$$




USA.gov is the U.S. government's official web portal to all federal, state and local government web resources and services.